Jacksonville NAS, FL

11:31 AM EST on November 20, 2017 (GMT -0500)
Jacksonville Naval Air Station

Weather History for KNIP - January, 2013

Change the Weather History Date:

Thursday, January 3, 2013

  Actual Average Record
Temperature  
Mean Temperature 56 °F -  
Max Temperature 61 °F 63 °F 82 °F (2015)
Min Temperature 50 °F 44 °F 50 °F (2016)
Degree Days  
Heating Degree Days 10    
Growing Degree Days 6 (Base 50)    
Moisture  
Dew Point 53 °F    
Average Humidity 89    
Maximum Humidity 96    
Minimum Humidity 81    
Precipitation  
Precipitation 0.10 in - - ()
Sea Level Pressure  
Sea Level Pressure 30.15 in    
Wind  
Wind Speed 9 mph (North)    
Max Wind Speed 15 mph    
Max Gust Speed -    
Visibility 6 miles    
Events Rain    
Averages and records for this station are not official NWS values.
T = Trace of Precipitation, MM = Missing Value Source: NWS Daily Summary

Daily Weather History Graph

Daily Weather History Graph

Search for Another Location

Airport or City:

Trip Planner

Search our weather history database for the weather conditions in past years. The results will help you decide how hot, cold, wet, or windy it might be!

Date:

Astronomy

Jan. 03, 2013 Rise Set
Actual Time 7:23 AM EST 5:39 PM EST
Civil Twilight 6:57 AM EST 6:05 PM EST
Nautical Twilight 6:27 AM EST 6:35 PM EST
Astronomical Twilight 5:58 AM EST 7:04 PM EST
Moon 11:43 PM EST (1/3) 11:02 AM EST (1/3)
Length of Visible Light 11h 08m
Length of Day
10h 15m
Waning Gibbous, 65% of the Moon is Illuminated
Jan 3
Waning Gibbous
Jan 4
Last Quarter
Jan 11
New
Jan 18
First Quarter
Jan 26
Full

Hourly Weather History & Observations

Time (EST) Temp. Dew Point Humidity Pressure Visibility Wind Dir Wind Speed Gust Speed Precip Events Conditions
12:53 AM 61.0 °F 57.9 °F 90% 30.07 in 8.0 mi North 8.1 mph - N/A   Overcast
1:32 AM 60.8 °F 57.2 °F 88% 30.08 in 1.5 mi North 8.1 mph - N/A   Overcast
1:35 AM 60.8 °F 57.2 °F 88% 30.08 in 1.0 mi North 9.2 mph - N/A   Overcast
1:53 AM 59.0 °F 57.9 °F 96% 30.07 in 0.8 mi North 9.2 mph - 0.00 in   Light Drizzle
2:25 AM 59.0 °F 57.2 °F 94% 30.08 in 1.5 mi NNE 8.1 mph - 0.00 in   Overcast
2:53 AM 59.0 °F 57.0 °F 93% 30.06 in 4.0 mi NNE 5.8 mph - 0.00 in   Overcast
3:53 AM 59.0 °F 55.9 °F 90% 30.07 in 6.0 mi NNE 6.9 mph - N/A   Overcast
4:23 AM 57.2 °F 55.4 °F 94% 30.08 in 7.0 mi NNE 6.9 mph - N/A   Overcast
4:53 AM 57.9 °F 55.9 °F 93% 30.07 in 7.0 mi NNE 8.1 mph - N/A   Overcast
5:53 AM 57.9 °F 55.0 °F 90% 30.09 in 7.0 mi North 9.2 mph - N/A   Overcast
6:53 AM 57.0 °F 55.0 °F 93% 30.09 in 7.0 mi NNE 8.1 mph - N/A   Overcast
7:53 AM 57.0 °F 54.0 °F 89% 30.12 in 5.0 mi North 10.4 mph - N/A   Overcast
8:53 AM 57.9 °F 54.0 °F 87% 30.14 in 6.0 mi North 6.9 mph - N/A   Overcast
9:41 AM 57.2 °F 53.6 °F 88% 30.16 in 7.0 mi North 8.1 mph - N/A   Overcast
9:53 AM 57.9 °F 54.0 °F 87% 30.15 in 7.0 mi North 6.9 mph - N/A   Overcast
10:53 AM 59.0 °F 54.0 °F 83% 30.16 in 10.0 mi North 9.2 mph - N/A   Overcast
11:53 AM 59.0 °F 54.0 °F 83% 30.16 in 9.0 mi NNW 11.5 mph - 0.00 in Rain Light Rain
12:53 PM 57.9 °F 55.0 °F 90% 30.13 in 6.0 mi North 11.5 mph - 0.00 in   Overcast
1:53 PM 57.9 °F 54.0 °F 87% 30.12 in 10.0 mi North 10.4 mph - 0.00 in   Overcast
2:53 PM 57.9 °F 52.0 °F 81% 30.13 in 6.0 mi North 5.8 mph - 0.00 in Rain Light Rain
3:53 PM 55.9 °F 52.0 °F 87% 30.14 in 4.0 mi North 6.9 mph - 0.07 in Rain Light Rain
4:16 PM 55.4 °F 53.6 °F 94% 30.15 in 7.0 mi NNE 4.6 mph - 0.00 in   Overcast
4:33 PM 55.4 °F 51.8 °F 88% 30.16 in 6.0 mi North 6.9 mph - 0.00 in   Overcast
4:53 PM 55.9 °F 53.1 °F 90% 30.16 in 4.0 mi North 8.1 mph - 0.00 in Rain Light Rain
5:37 PM 55.4 °F 53.6 °F 94% 30.19 in 2.0 mi NNW 9.2 mph - 0.01 in Rain Light Rain
5:53 PM 55.0 °F 53.1 °F 93% 30.17 in 2.0 mi North 10.4 mph - 0.01 in Rain Light Rain
6:12 PM 55.4 °F 53.6 °F 94% 30.21 in 4.0 mi NNW 10.4 mph - 0.00 in Rain Light Rain
6:53 PM 51.1 °F 48.0 °F 89% 30.20 in 7.0 mi North 13.8 mph - 0.02 in Rain Light Rain
7:10 PM 51.8 °F 48.2 °F 88% 30.22 in 8.0 mi North 11.5 mph - 0.00 in   Overcast
7:53 PM 50.0 °F 46.9 °F 89% 30.21 in 8.0 mi North 15.0 mph - 0.00 in   Overcast
8:45 PM 50.0 °F 46.4 °F 87% 30.24 in 8.0 mi North 11.5 mph - 0.00 in Rain Light Rain
8:53 PM 50.0 °F 46.0 °F 86% 30.23 in 10.0 mi NNW 9.2 mph - 0.00 in Rain Light Rain
9:53 PM 50.0 °F 46.9 °F 89% 30.25 in 10.0 mi NNW 9.2 mph - 0.00 in   Overcast
10:53 PM 50.0 °F 46.9 °F 89% 30.24 in 4.0 mi North 8.1 mph - 0.00 in Rain Light Rain
11:16 PM 50.0 °F 46.4 °F 87% 30.25 in 9.0 mi North 10.4 mph - 0.00 in   Overcast
11:53 PM 50.0 °F 46.9 °F 89% 30.23 in 10.0 mi North 12.7 mph - 0.00 in   Overcast